Simultaneous Nadir Overpasses (SNOs) Predictions

Prediction of SNOs between GOES-16 and METOP-C Satellite Orbit:

Table of predicted SNOs for the next 14.0 days since TLE Epoch: 7/3/2021
Index Date Time (GOES-16) GOES-16 Lat,Lon METOP-C Lat,Lon Distance(km) Time Diff (sec)
1 07/03/2021 02:29:11 0.05, -75.11 0.18, -74.46 74.23 2
2 07/04/2021 14:49:24 -0.03, -75.14 0.85, -79.02 442.06 80
3 07/05/2021 14:26:05 -0.04, -75.14 -0.28, -74.03 127.08 80
4 07/07/2021 02:47:44 0.03, -75.12 -0.74, -78.62 399.16 80
5 07/08/2021 02:24:25 0.04, -75.12 0.40, -73.63 170.05 80
6 07/09/2021 14:45:56 -0.03, -75.16 0.64, -78.19 345.85 80
7 07/10/2021 14:22:37 -0.05, -75.16 -0.49, -73.20 223.56 80
8 07/12/2021 02:44:15 0.04, -75.14 -0.57, -77.78 301.87 80
9 07/13/2021 02:20:55 0.05, -75.15 0.56, -72.79 267.80 80
10 07/14/2021 14:42:28 -0.04, -75.19 0.43, -77.36 247.20 80
11 07/15/2021 14:19:08 -0.05, -75.20 -0.71, -72.37 322.95 80
